Date String (YYYY-MM-DD hh:mm:ss) UTC,Instrument flags,absolute air pressure of the measurement (hPa),sample flow rate (lpm),inlet stack bypass flow (lpm),air temperature of the measurement (°C),ambient temperature measured by the external sensor (°C),aerosol sample conditioner tube jacket temperature (°C),OPC LED temperature (°C),internal box temperature (°C),relative humidity of the measurement (%),span deviation,mass concentration of particles derived from Lorenz-Mie calculation of OPC scattering (μg/m³),mass concentration of particles derived from Lorenz-Mie calculation of OPC scattering (μg/m³),mass concentration of particles derived from Lorenz-Mie calculation of OPC scattering (μg/m³)
DateTimeUTC,F1_M11,P_M11,Q1_M11,Q2_M11,T1_M11,T2_M11,T3_M11,T4_M11,T5_M11,U1_M11,ZSPAN_M11,X0_M11,X2_M11,X1_M11
2023-11-05 13:00:00,SystemResetWarning,0827.4,5.00,000.00,027.1,025.9,000.0,035.6,028.4,11.8,0000.0,0005.86,0002.02,0001.73
2023-11-05 13:01:00,SystemResetWarning,0827.2,5.00,000.00,027.1,025.9,000.0,035.6,028.4,11.8,0000.0,0005.33,0002.01,0001.73
2023-11-05 13:02:00,SystemResetWarning,0827.1,5.00,000.00,027.1,025.9,000.0,035.6,028.4,11.7,0000.0,0005.05,0002.00,0001.73
2023-11-05 13:03:00,SystemResetWarning,0827.1,5.00,000.00,027.1,025.9,000.0,035.6,028.5,11.7,0000.0,0005.44,0002.04,0001.75
2023-11-05 13:04:00,SystemResetWarning,0827.1,4.99,000.00,027.1,025.9,000.0,035.6,028.5,11.7,0000.0,0006.38,0002.10,0001.76
2023-11-05 13:05:00,SystemResetWarning,0827.0,5.00,000.00,027.1,025.9,000.0,035.6,028.5,11.8,0000.0,0006.49,0002.18,0001.77
2023-11-05 13:06:00,SystemResetWarning,0827.2,5.00,000.00,027.1,025.9,000.0,035.6,028.5,11.7,0000.0,0007.75,0002.27,0001.79
2023-11-05 13:07:00,SystemResetWarning,0827.2,5.00,000.00,027.1,025.8,000.0,035.5,028.5,11.8,0000.0,0008.10,0002.33,0001.80
2023-11-05 13:08:00,SystemResetWarning,0827.3,5.01,000.00,027.1,025.8,000.0,035.5,028.5,11.8,0000.0,0008.81,0002.43,0001.81
2023-11-05 13:09:00,SystemResetWarning,0827.3,5.00,000.00,027.1,025.8,000.0,035.5,028.4,11.7,0000.0,0008.72,0002.48,0001.84
2023-11-05 13:10:00,SystemResetWarning,0827.3,5.00,000.00,027.1,025.8,000.0,035.5,028.4,11.7,0000.0,0008.73,0002.47,0001.84
2023-11-05 13:11:00,SystemResetWarning,0827.3,5.00,000.00,027.1,025.9,000.0,035.5,028.4,11.7,0000.0,0009.35,0002.53,0001.85
2023-11-05 13:12:00,SystemResetWarning,0827.4,5.01,000.00,027.1,025.9,000.0,035.5,028.4,11.6,0000.0,0009.83,0002.59,0001.87
2023-11-05 13:13:00,SystemResetWarning,0827.4,5.00,000.00,027.1,025.8,000.0,035.5,028.4,11.6,0000.0,0010.08,0002.59,0001.89
2023-11-05 13:14:00,SystemResetWarning,0827.4,5.00,000.00,027.1,025.8,000.0,035.5,028.3,11.6,0000.0,0010.20,0002.56,0001.89
2023-11-05 13:15:00,SystemResetWarning,0827.5,5.00,000.00,027.0,025.8,000.0,035.5,028.3,11.6,0000.0,0009.65,0002.50,0001.89
2023-11-05 13:16:00,SystemResetWarning,0827.4,5.00,000.00,027.0,025.7,000.0,035.5,028.3,11.8,0000.0,0009.15,0002.43,0001.88
2023-11-05 13:17:00,SystemResetWarning,0827.5,5.00,000.00,027.0,025.7,000.0,035.5,028.3,11.8,0000.0,0008.38,0002.36,0001.87
2023-11-05 13:18:00,SystemResetWarning,0827.4,5.00,000.00,027.0,025.7,000.0,035.4,028.2,11.8,0000.0,0007.98,0002.33,0001.86
2023-11-05 13:19:00,SystemResetWarning,0827.4,5.00,000.00,027.0,025.7,000.0,035.4,028.2,11.8,0000.0,0007.42,0002.29,0001.86
2023-11-05 13:20:00,SystemResetWarning,0827.6,5.00,000.00,027.0,025.7,000.0,035.4,028.2,11.7,0000.0,0006.26,0002.23,0001.85
2023-11-05 13:21:00,SystemResetWarning,0827.5,5.00,000.00,026.9,025.7,000.0,035.4,028.2,11.8,0000.0,0006.15,0002.18,0001.84
2023-11-05 13:22:00,SystemResetWarning,0827.6,5.00,000.00,026.9,025.7,000.0,035.4,028.2,11.8,0000.0,0006.14,0002.17,0001.83
2023-11-05 13:23:00,SystemResetWarning,0827.6,5.00,000.00,026.9,025.7,000.0,035.4,028.2,11.8,0000.0,0005.21,0002.13,0001.83
2023-11-05 13:24:00,SystemResetWarning,0827.4,5.00,000.00,026.9,025.7,000.0,035.4,028.2,11.7,0000.0,0004.97,0002.09,0001.82
2023-11-05 13:25:00,SystemResetWarning,0827.4,5.00,000.00,026.9,025.7,000.0,035.4,028.2,11.7,0000.0,0004.89,0002.11,0001.82
2023-11-05 13:26:00,SystemResetWarning,0827.3,5.00,000.00,026.9,025.7,000.0,035.4,028.2,11.8,0000.0,0005.45,0002.16,0001.84
2023-11-05 13:27:00,SystemResetWarning,0827.4,5.00,000.00,026.9,025.7,000.0,035.4,028.2,11.6,0000.0,0005.48,0002.17,0001.86
2023-11-05 13:28:00,SystemResetWarning,0827.4,5.00,000.00,026.9,025.7,000.0,035.4,028.2,11.6,0000.0,0005.54,0002.22,0001.88
2023-11-05 13:29:00,SystemResetWarning,0827.4,4.99,000.00,026.9,025.7,000.0,035.4,028.2,11.7,0000.0,0005.58,0002.25,0001.89
2023-11-05 13:30:00,SystemResetWarning,0827.4,4.99,000.00,026.9,025.7,000.0,035.3,028.2,11.7,0000.0,0005.71,0002.25,0001.93
2023-11-05 13:31:00,SystemResetWarning,0827.4,4.99,000.00,026.9,025.7,000.0,035.3,028.2,11.7,0000.0,0005.71,0002.26,0001.96
2023-11-05 13:32:00,SystemResetWarning,0827.4,5.00,000.00,026.9,025.7,000.0,035.3,028.2,11.8,0000.0,0005.76,0002.31,0002.00
2023-11-05 13:33:00,SystemResetWarning,0827.4,5.00,000.00,026.9,025.8,000.0,035.3,028.3,11.8,0000.0,0004.84,0002.33,0002.05
2023-11-05 13:34:00,SystemResetWarning,0827.5,5.01,000.00,026.9,025.8,000.0,035.3,028.3,11.8,0000.0,0004.68,0002.38,0002.10
2023-11-05 13:35:00,SystemResetWarning,0827.6,5.01,000.00,026.9,025.8,000.0,035.3,028.3,11.7,0000.0,0004.57,0002.45,0002.14
2023-11-05 13:36:00,SystemResetWarning,0827.7,5.00,000.00,026.9,025.8,000.0,035.3,028.3,11.7,0000.0,0004.14,0002.50,0002.19
2023-11-05 13:37:00,SystemResetWarning,0827.7,5.00,000.00,026.9,025.8,000.0,035.3,028.4,11.7,0000.0,0003.69,0002.52,0002.20
2023-11-05 13:38:00,SystemResetWarning,0827.7,5.00,000.00,026.9,025.8,000.0,035.3,028.4,11.7,0000.0,0003.79,0002.54,0002.21
2023-11-05 13:39:00,SystemResetWarning,0827.4,5.00,000.00,026.9,025.8,000.0,035.3,028.4,11.6,0000.0,0003.93,0002.65,0002.34
2023-11-05 13:40:00,SystemResetWarning,0827.4,5.00,000.00,026.9,025.8,000.0,035.3,028.4,11.5,0000.0,0004.21,0002.92,0002.61
2023-11-05 13:41:00,SystemResetWarning,0827.4,5.00,000.00,026.9,025.8,000.0,035.3,028.3,11.5,0000.0,0004.56,0003.20,0002.98
2023-11-05 13:42:00,SystemResetWarning,0827.4,4.99,000.00,026.9,025.8,000.0,035.3,028.4,11.6,0000.0,0004.95,0003.41,0003.23
2023-11-05 13:43:00,SystemResetWarning,0827.5,4.99,000.00,026.9,025.9,000.0,035.3,028.3,11.6,0000.0,0005.79,0003.53,0003.34
2023-11-05 13:44:00,SystemResetWarning,0827.9,5.00,000.00,026.9,025.8,000.0,035.3,028.3,11.5,0000.0,0006.19,0003.65,0003.45
2023-11-05 13:45:00,SystemResetWarning,0827.4,5.01,000.00,026.9,025.8,000.0,035.3,028.3,11.6,0000.0,0006.37,0003.77,0003.55
2023-11-05 13:46:00,SystemResetWarning,0827.4,4.99,000.00,026.9,025.8,000.0,035.3,028.4,11.6,0000.0,0006.49,0003.82,0003.60
2023-11-05 13:47:00,SystemResetWarning,0827.6,4.99,000.00,026.9,025.8,000.0,035.3,028.4,11.6,0000.0,0006.62,0003.90,0003.69
2023-11-05 13:48:00,SystemResetWarning,0827.5,5.02,000.00,027.0,025.9,000.0,035.3,028.3,11.5,0000.0,0006.66,0004.01,0003.79
2023-11-05 13:49:00,SystemResetWarning,0827.6,5.01,000.00,027.0,025.9,000.0,035.4,028.3,11.6,0000.0,0006.64,0004.07,0003.86
2023-11-05 13:50:00,SystemResetWarning,0827.4,4.99,000.00,027.0,025.9,000.0,035.3,028.4,11.7,0000.0,0006.68,0004.09,0003.88
2023-11-05 13:51:00,SystemResetWarning,0827.4,4.99,000.00,027.0,025.9,000.0,035.4,028.4,11.7,0000.0,0006.42,0004.00,0003.82
2023-11-05 13:52:00,SystemResetWarning,0827.3,5.00,000.00,027.0,025.9,000.0,035.4,028.4,11.5,0000.0,0006.08,0003.90,0003.72
2023-11-05 13:53:00,SystemResetWarning,0827.3,5.00,000.00,027.0,025.9,000.0,035.4,028.4,11.5,0000.0,0005.97,0003.86,0003.68
2023-11-05 13:54:00,SystemResetWarning,0827.3,5.01,000.00,027.0,025.9,000.0,035.4,028.4,11.2,0000.0,0005.64,0003.93,0003.75
2023-11-05 13:55:00,SystemResetWarning,0827.4,5.01,000.00,027.0,025.9,000.0,035.4,028.4,11.4,0000.0,0005.45,0004.02,0003.85
2023-11-05 13:56:00,SystemResetWarning,0827.3,5.00,000.00,027.0,025.9,000.0,035.4,028.5,11.5,0000.0,0005.46,0004.05,0003.90
2023-11-05 13:57:00,SystemResetWarning,0827.2,4.99,000.00,027.0,026.0,000.0,035.4,028.4,11.4,0000.0,0005.44,0004.12,0003.97
2023-11-05 13:58:00,SystemResetWarning,0827.2,5.01,000.00,027.0,025.9,000.0,035.4,028.3,11.2,0000.0,0005.60,0004.19,0004.03
2023-11-05 13:59:00,SystemResetWarning,0827.3,5.01,000.00,027.0,025.9,000.0,035.4,028.3,11.2,0000.0,0006.40,0004.26,0004.12
